Reggio Calabria, Italy

2:23 PM CEST on July 23, 2017 (GMT +0200)
Reggio Calabria

Weather History for LICR - July, 2013

Change the Weather History Date:

Saturday, July 20, 2013

  Actual Average Record
Temperature  
Mean Temperature 81 °F -  
Max Temperature 89 °F 86 °F 95 °F (2003)
Min Temperature 73 °F 73 °F 71 °F (1999)
Cooling Degree Days 16    
Growing Degree Days 31 (Base 50)    
Moisture  
Dew Point 58 °F    
Average Humidity 44    
Maximum Humidity 74    
Minimum Humidity 27    
Precipitation  
Precipitation 0.00 in - - ()
Sea Level Pressure  
Sea Level Pressure 29.95 in    
Wind  
Wind Speed 9 mph ()    
Max Wind Speed 16 mph    
Max Gust Speed -    
Visibility 6.2 miles    
Events      
Averages and records for this station are not official NWS values.
T = Trace of Precipitation, MM = Missing Value Source: Averaged Metar Reports

Daily Weather History Graph

Daily Weather History Graph

Search for Another Location

Airport or City:

Trip Planner

Search our weather history database for the weather conditions in past years. The results will help you decide how hot, cold, wet, or windy it might be!

Date:

Astronomy

Jul. 20, 2013 Rise Set
Actual Time 5:50 AM CEST 8:16 PM CEST
Civil Twilight 5:20 AM CEST 8:46 PM CEST
Nautical Twilight 4:42 AM CEST 9:24 PM CEST
Astronomical Twilight 4:01 AM CEST 10:05 PM CEST
Moon 6:03 PM CEST (7/20) 3:12 AM CEST (7/20)
Length of Visible Light 15h 26m
Length of Day
14h 26m
Waxing Gibbous, 92% of the Moon is Illuminated
Jul 20
Waxing Gibbous
Jul 22
Full
Jul 29
Last Quarter
Aug 6
New
Aug 14
First Quarter

Hourly Weather History & Observations

Time (CEST) Temp. Heat Index Dew Point Humidity Pressure Visibility Wind Dir Wind Speed Gust Speed Precip Events Conditions
5:50 AM 73.4 °F - 50.0 °F 44% 29.95 in - NE 5.8 mph - N/A   Clear
6:50 AM 75.2 °F - 50.0 °F 41% 29.95 in - NE 4.6 mph - N/A   Clear
7:50 AM 78.8 °F - 55.4 °F 44% 29.95 in - North 10.4 mph - N/A   Clear
8:50 AM 80.6 °F 83.2 °F 68.0 °F 65% 29.98 in - North 15.0 mph - N/A   Clear
9:50 AM 82.4 °F 83.4 °F 62.6 °F 51% 29.98 in - North 13.8 mph - N/A   Clear
10:50 AM 86.0 °F 84.9 °F 57.2 °F 37% 29.98 in - North 11.5 mph - N/A   Clear
11:50 AM 87.8 °F 86.5 °F 57.2 °F 35% 29.98 in 6.2 mi North 11.5 mph - N/A   Partly Cloudy
12:50 PM 87.8 °F 86.1 °F 55.4 °F 33% 29.95 in 6.2 mi North 13.8 mph - N/A   Partly Cloudy
1:50 PM 89.6 °F 87.3 °F 53.6 °F 29% 29.95 in 6.2 mi North 13.8 mph - N/A   Partly Cloudy
2:50 PM 89.6 °F 87.3 °F 53.6 °F 29% 29.95 in 6.2 mi North 15.0 mph - N/A   Partly Cloudy
3:50 PM 89.6 °F - 51.8 °F 27% 29.92 in 6.2 mi North 16.1 mph - N/A   Partly Cloudy
4:50 PM 87.8 °F 86.1 °F 55.4 °F 33% 29.92 in - North 13.8 mph - N/A   Clear
5:50 PM 86.0 °F 84.9 °F 57.2 °F 37% 29.92 in - North 11.5 mph - N/A   Clear
6:50 PM 84.2 °F 84.4 °F 60.8 °F 45% 29.92 in - NNW 9.2 mph - N/A   Clear
7:50 PM 78.8 °F - 66.2 °F 65% 29.92 in - North 13.8 mph - N/A   Clear
8:50 PM 78.8 °F - 69.8 °F 74% 29.95 in - North 12.7 mph - N/A   Clear
9:50 PM 77.0 °F - 66.2 °F 69% 29.95 in - North 11.5 mph - N/A   Clear
10:50 PM 77.0 °F - 55.4 °F 47% 29.95 in - NNE 6.9 mph - N/A   Clear
11:50 PM 77.0 °F - 50.0 °F 39% 29.95 in - NNW 5.8 mph - N/A   Clear